Location: *
(53.9002°N, 27.5624°E)
Time: 00:53:55
(UTC+00:00)

Okean-O - Pass Details

Date: 12 November 2019
Orbit: 638 x 641 km, 98.2° (Epoch: 10 December)

Event Time Altitude Azimuth Distance (km) Brightness Sun altitude
Rises 15:54:20 0° 171° (S) 2,938 6.1 -14.3°
Reaches altitude 10° 15:56:32 10° 174° (S) 2,033 5.3 -14.6°
Maximum altitude 16:00:57 67° 257° (WSW) 701 3.0 -15.3°
Drops below altitude 10° 16:05:24 10° 340° (NNW) 2,048 5.4 -15.9°
Sets 16:07:38 0° 344° (NNW) 2,962 6.2 -16.2°
